Flag for South Korea Weather past 2 weeks in Daegu, South Korea

Now
37 °F

Sunny.


Feels Like: 34 °F
Forecast: 27 / 42 °F
Wind: 5 mph from West

Location: Taegu Ab

Current Time: Dec 19, 2014 at 3:49:27 PM

Latest Report: Dec 19, 2014 at 3:00 PM


Visibility: 10 mi

Pressure: 30.36 "Hg

Humidity: 35%

Dew point: 12 °F

Location of DaeguLocation

Historic Weather in Daegu — Graph

°F

Daegu temperature yesterday

Maximum temperature yesterday: 36 °F (at 3:00 PM)
Minimum temperature yesterday: 21 °F (at 5:00 AM)
Average temperature yesterday: 26 °F

Past Weeks' High & Low Weather Summary

 TemperatureHumidityPressure
High50 °F (Dec 10, 3:00 PM)93% (Dec 8, 6:02 AM)30.57 "Hg (Dec 8, 6:02 AM)
Low16 °F (Dec 19, 4:00 AM)14% (Dec 13, 2:00 PM)29.92 "Hg (Dec 16, 5:00 AM)
Average32 °F51%30.25 "Hg
* Reported Dec 4 2:00 PM — Dec 19 2:00 PM, Daegu, Weather by CustomWeather, © 2014

Note: Actual official high and low records may vary slightly from our data, if they occured in-between our weather recording intervals... More about our weather records

Advertising

Daegu weather history for previous 24 hours

 ConditionsComfort  
Time TempWeatherWind HumidityBarometerVisibility
2:00 PM
Dec 19
37 °FBroken clouds.3 mph33%30.36 "HgN/A
1:00 PM34 °FBroken clouds.3 mph35%30.39 "HgN/A
12:00 PM32 °FSunny.1 mph37%30.45 "Hg10 mi
11:00 AM28 °FSunny.1 mph43%30.48 "Hg10 mi
10:00 AM27 °FSunny.2 mph50%30.51 "Hg10 mi
9:00 AM21 °FSunny.2 mph58%30.51 "Hg10 mi
8:00 AM18 °FSunny.1 mph62%30.51 "Hg10 mi
7:00 AM18 °FClear.1 mph68%30.51 "Hg10 mi
6:00 AM18 °FClear.1 mph62%30.51 "Hg10 mi
5:00 AM18 °FClear.1 mph62%30.51 "Hg10 mi
4:00 AM16 °FClear.1 mph67%30.53 "HgN/A
2:00 AM18 °FClear.1 mph68%30.55 "HgN/A
12:00 AM19 °FClear.1 mph53%30.56 "HgN/A
11:00 PM
Dec 18
21 °FClear.1 mph49%30.57 "HgN/A
10:00 PM21 °FClear.1 mph54%30.54 "Hg10 mi
9:00 PM25 °FClear.1 mph42%30.54 "Hg10 mi
8:00 PM27 °FClear.1 mph36%30.51 "Hg10 mi
7:00 PM30 °FClear.1 mph29%30.48 "Hg10 mi
6:00 PM30 °FClear.7 mph29%30.48 "Hg10 mi
5:00 PM32 °FSunny.10 mph23%30.48 "Hg10 mi
4:00 PM34 °FSunny.12 mph19%30.45 "Hg10 mi
3:00 PM36 °FSunny.10 mph18%30.45 "Hg10 mi
Weather by CustomWeather, © 2014

See weather overviewHow to use our weather pages